DM5RC Weather Reports


Display with metric or nautical units.
time (UTC)temp
F
wind
direction
speed
MPH
gust
MPH
rain 1hr
in
rain 24hr
in
rain mn
in
humidity
%
barometer
mb
20240530094708 74 84 3.0 3.0 0.00 0.00 0.00 56 1004.7
20240530093703 74 131 2.0 3.0 0.00 0.00 0.00 56 1004.8
20240530092701 74 137 2.0 3.0 0.00 0.00 0.00 56 1004.9
20240530091824 75 141 3.0 6.0 0.00 0.00 0.00 54 1005.0
20240530091703 75 141 3.0 6.0 0.00 0.00 0.00 54 1005.0
20240530090746 75 133 6.0 5.0 0.00 0.00 0.00 52 1005.0
20240530090703 75 133 6.0 5.0 0.00 0.00 0.00 52 1005.0
20240530085703 74 154 5.0 8.0 0.00 0.00 0.00 53 1005.1
20240530084705 74 143 5.0 8.0 0.00 0.00 0.00 55 1005.2
20240530083703 75 117 5.0 6.0 0.00 0.00 0.00 53 1005.2
20240530082701 74 145 2.0 3.0 0.00 0.00 0.00 55 1005.2
20240530081744 73 190 3.0 3.0 0.00 0.00 0.00 55 1005.3
20240530081703 73 190 3.0 3.0 0.00 0.00 0.00 55 1005.3
20240530080703 72 60 3.0 3.0 0.00 0.00 0.00 61 1005.3
20240530075703 71 30 1.0 5.0 0.00 0.00 0.00 63 1005.4
20240530074706 71 56 3.0 5.0 0.00 0.00 0.00 62 1005.5
20240530073703 70 46 3.0 6.0 0.00 0.00 0.00 63 1005.5
20240530072701 69 64 3.0 3.0 0.00 0.00 0.00 65 1005.6
20240530071703 69 45 3.0 5.0 0.00 0.00 0.00 66 1005.6
20240530070703 69 70 2.0 3.0 0.00 0.00 0.00 68 1005.7
20240530065705 70 53 2.0 6.0 0.00 0.00 0.00 67 1005.7
20240530064709 68 134 0.0 3.0 0.00 0.00 0.00 68 1005.8
20240530063703 67 132 0.0 2.0 0.00 0.00 0.00 72 1005.9
20240530062703 66 134 2.0 3.0 0.00 0.00 0.00 72 1006.0
20240530061706 65 103 1.0 2.0 0.00 0.00 0.00 75 1006.0
20240530060703 64 241 0.0 0.0 0.00 0.00 0.00 78 1006.0
20240530055703 63 200 1.0 1.0 0.00 0.00 0.00 79 1006.0
20240530054713 63 195 0.0 1.0 0.00 0.00 0.00 81 1006.0
20240530053711 62 124 2.0 3.0 0.00 0.00 0.00 82 100.6
20240530053703 62 124 2.0 3.0 0.00 0.00 0.00 82 1006.1
20240530052721 62 115 2.0 6.0 0.00 0.00 0.00
20240530052703 62 115 2.0 6.0 0.00 0.00 0.00 82 1006.2
20240530051705 63 126 1.0 3.0 0.00 0.00 0.00 81 1006.3
20240530050713 63 124 1.0 5.0 0.00 0.00 0.00
20240530050703 63 124 1.0 5.0 0.00 0.00 0.00 82 1006.3
20240530045705 61 131 0.0 0.0 0.00 0.00 0.00 84 1006.3
20240530044709 60 184 0.0 0.0 0.00 0.00 0.00 88 1006.2
20240530043703 59 215 1.0 1.0 0.00 0.00 0.00 88 1006.3
20240530042702 58 215 1.0 2.0 0.00 0.00 0.00 89 1006.4
20240530041703 58 267 1.0 2.0 0.00 0.00 0.00 89 1006.5
20240530040703 58 255 0.0 1.0 0.00 0.00 0.00 89 1006.5
20240530035703 58 268 0.0 0.0 0.00 0.00 0.00 88 1006.6
20240530034703 58 196 0.0 0.0 0.00 0.00 0.00 89 1006.6
20240530033703 58 131 0.0 1.0 0.00 0.00 0.00 90 1006.6
20240530032701 58 132 1.0 1.0 0.00 0.00 0.00 90 1006.6
20240530031703 58 128 0.0 1.0 0.00 0.00 0.00 90 1006.7
20240530030703 57 137 0.0 1.0 0.00 0.00 0.00 89 1006.8
20240530025703 58 227 0.0 0.0 0.00 0.00 0.00 88 1006.8
20240530024704 58 227 0.0 0.0 0.00 0.00 0.00 87 1006.8
20240530023703 59 227 0.0 0.0 0.00 0.00 0.00 87 1006.9
20240530022701 59 227 0.0 0.0 0.00 0.00 0.00 86 1006.9
20240530021705 60 224 1.0 1.0 0.00 0.00 0.00 86 1007.1
20240530020746 60 196 0.0 0.0 0.00 0.00 0.00 85 1007.2
20240530020703 60 196 0.0 0.0 0.00 0.00 0.00 85 1007.2
20240530015740 60 138 0.0 0.0 0.00 0.00 0.00 85 1007.3
20240530015703 60 138 0.0 0.0 0.00 0.00 0.00 85 1007.3
20240530014709 60 139 0.0 1.0 0.00 0.00 0.00 85 1007.4
20240530013703 60 139 0.0 1.0 0.00 0.00 0.00 85 1007.6
20240530012701 60 125 0.0 1.0 0.00 0.01 0.00 84 1007.7
20240530011705 60 149 0.0 0.0 0.00 0.01 0.00 84 1007.7
20240530010703 61 149 0.0 0.0 0.00 0.01 0.00 83 1007.9
20240530005703 61 203 0.0 0.0 0.00 0.01 0.00 82 1007.9
20240530004708 62 159 0.0 0.0 0.00 0.01 0.00 82 1008.0
20240530003703 62 124 0.0 0.0 0.00 0.01 0.00 82 1008.1
20240530002701 62 121 0.0 0.0 0.00 0.01 0.00 81 1008.2
20240530001703 62 124 0.0 0.0 0.00 0.01 0.00 80 1008.4
20240530000703 62 215 0.0 0.0 0.00 0.01 0.00 80 1008.4
20240529235704 62 215 0.0 0.0 0.00 0.01 0.00 79 1008.5
20240529234706 63 179 1.0 2.0 0.00 0.01 0.00 79 1008.5
20240529233744 63 148 0.0 1.0 0.00 0.01 0.00 79 1008.5
20240529233703 63 148 0.0 1.0 0.00 0.01 0.00 79 1008.5
20240529232702 63 134 0.0 1.0 0.00 0.01 0.00 79 1008.6
20240529231703 63 95 0.0 0.0 0.00 0.01 0.00 78 1008.6
20240529230703 63 182 1.0 2.0 0.00 0.01 0.00 78 1008.5
20240529225736 63 230 0.0 1.0 0.00 0.01 0.00 78 1008.6
20240529225717 63 230 0.0 1.0 0.00 0.01 0.00
20240529225704 63 230 0.0 1.0 0.00 0.01 0.00 78 1008.6
20240529224705 63 210 0.0 1.0 0.00 0.01 0.00 78 1008.7
20240529223704 63 197 0.0 2.0 0.00 0.01 0.00 77 1008.8
20240529222701 63 205 1.0 3.0 0.00 0.01 0.00 77 1008.8
20240529221704 63 223 1.0 2.0 0.00 0.01 0.00 76 1008.9
20240529220703 64 197 1.0 2.0 0.00 0.01 0.00 76 1009.0
20240529215703 64 224 0.0 1.0 0.00 0.01 0.01 75 1009.1
20240529214708 64 223 1.0 3.0 0.00 0.01 0.01 75 1009.1
20240529213703 64 215 1.0 2.0 0.00 0.01 0.01 74 1009.1
20240529212701 64 209 0.0 1.0 0.00 0.01 0.01 73 1009.2
20240529211703 65 218 0.0 0.0 0.00 0.01 0.01 73 1009.2
20240529210703 65 203 0.0 1.0 0.00 0.01 0.01 73 1009.2
20240529205703 65 208 0.0 0.0 0.00 0.01 0.01 72 1009.3
20240529204706 65 189 0.0 1.0 0.00 0.01 0.01 71 1009.3
20240529203704 66 210 0.0 0.0 0.00 0.01 0.01 71 1009.3
20240529202702 66 192 0.0 0.0 0.00 0.01 0.01 70 1009.4
20240529201741 66 234 0.0 1.0 0.00 0.01 0.01 69 1009.5
20240529201703 66 234 0.0 1.0 0.00 0.01 0.01 69 1009.5
20240529200705 66 240 0.0 2.0 0.00 0.01 0.01 69 1009.5
20240529195703 66 257 0.0 1.0 0.00 0.01 0.01 69 1009.6
20240529194707 66 212 1.0 1.0 0.00 0.01 0.01 68 1009.5
20240529193703 67 256 0.0 1.0 0.00 0.01 0.01 67 1009.5
20240529192701 67 243 0.0 1.0 0.00 0.01 0.01 67 1009.5
20240529191706 67 260 1.0 1.0 0.00 0.01 0.01 66 1009.5
20240529190703 67 263 1.0 3.0 0.00 0.01 0.01 65 1009.5
20240529185704 68 289 3.0 5.0 0.00 0.01 0.01 65 1009.6
20240529184743 68 275 2.0 5.0 0.00 0.01 0.01 63 1009.5
20240529184708 68 275 2.0 5.0 0.00 0.01 0.01 63 1009.5
20240529183705 69 265 3.0 5.0 0.00 0.01 0.01 60 1009.5
20240529182704 69 214 0.0 3.0 0.00 0.01 0.01 59 1009.2
20240529181705 70 205 1.0 2.0 0.00 0.01 0.01 57 1009.2
20240529180705 71 223 2.0 3.0 0.00 0.01 0.01 56 1009.3
20240529175705 71 222 1.0 2.0 0.00 0.01 0.01 55 1009.3
20240529174707 71 230 5.0 6.0 0.00 0.01 0.01 54 1009.3
20240529173705 72 224 1.0 2.0 0.00 0.01 0.01 54 1009.4
20240529172702 73 198 5.0 8.0 0.00 0.01 0.01 53 1009.3
20240529171705 72 231 5.0 7.0 0.00 0.01 0.01 53 1009.4
20240529170705 72 206 3.0 7.0 0.00 0.02 0.01 53 1009.5
20240529165705 72 250 2.0 3.0 0.00 0.02 0.01 52 1009.6
20240529164705 72 233 2.0 3.0 0.00 0.02 0.01 52 1009.6
20240529163704 73 207 2.0 3.0 0.00 0.02 0.01 52 1009.7
20240529162702 73 205 5.0 6.0 0.00 0.02 0.01 50 1009.8
20240529161706 72 256 3.0 6.0 0.00 0.02 0.01 51 1009.9
20240529160704 72 233 1.0 3.0 0.00 0.02 0.01 52 1009.9
20240529155705 72 250 2.0 6.0 0.00 0.02 0.01 51 1010.0
20240529154705 72 228 3.0 5.0 0.00 0.02 0.01 50 1010.1
20240529153706 73 212 1.0 2.0 0.00 0.02 0.01 50 1010.2
20240529152703 73 227 2.0 3.0 0.00 0.02 0.01 50 1010.2
20240529151737 73 271 5.0 6.0 0.00 0.02 0.01 49 1010.3
20240529151705 73 271 5.0 6.0 0.00 0.02 0.01 49 1010.3
20240529150738 74 259 5.0 9.0 0.00 0.02 0.01 47 1010.3
20240529150706 74 259 5.0 9.0 0.00 0.02 0.01 47 1010.3
20240529145706 74 254 3.0 5.0 0.00 0.02 0.01 47 1010.4
20240529144708 74 201 2.0 2.0 0.00 0.02 0.01 46 1010.5
20240529143706 75 238 8.0 10.0 0.00 0.02 0.01 44 1010.5
20240529142703 75 189 3.0 6.0 0.00 0.02 0.01 44 1010.6
20240529141705 75 234 6.0 7.0 0.00 0.02 0.01 45 1010.7
20240529140706 75 247 5.0 6.0 0.00 0.02 0.01 45 1010.9
20240529135705 75 211 6.0 10.0 0.00 0.02 0.01 45 1011.0
20240529134705 75 136 3.0 3.0 0.00 0.02 0.01 44 1011.0
20240529133705 76 222 7.0 13.0 0.00 0.02 0.01 44 1011.2
20240529132704 75 202 1.0 6.0 0.00 0.02 0.01 46 1011.2
20240529131705 74 261 3.0 5.0 0.00 0.02 0.01 44 1011.4
20240529130705 74 214 7.0 10.0 0.00 0.02 0.01 46 1011.5
20240529125705 73 233 2.0 7.0 0.00 0.02 0.01 44 1011.7
20240529124707 74 142 5.0 12.0 0.00 0.02 0.01 44 1011.8
20240529123705 74 212 6.0 8.0 0.00 0.02 0.01 43 1012.0
20240529122703 74 219 3.0 9.0 0.00 0.02 0.01 43 1012.1
20240529121708 74 205 5.0 6.0 0.00 0.03 0.01 43 1012.3
20240529120705 73 198 5.0 9.0 0.00 0.03 0.01 43 1012.4
20240529115707 73 185 5.0 7.0 0.00 0.04 0.01 42 1012.5
20240529114708 73 207 5.0 7.0 0.00 0.04 0.01 43 1012.6
20240529113705 73 275 2.0 3.0 0.00 0.04 0.01 43 1012.7
20240529112737 73 187 8.0 13.0 0.00 0.05 0.01 43 1012.7
20240529112703 73 187 8.0 13.0 0.00 0.05 0.01 43 1012.7
20240529111708 73 200 2.0 6.0 0.00 0.06 0.01 44 1012.9
20240529110737 73 239 3.0 10.0 0.00 0.07 0.01 45 1013.0
20240529110705 73 239 3.0 10.0 0.00 0.07 0.01 45 1013.0
20240529105709 72 198 6.0 6.0 0.00 0.07 0.01 46 1013.1
20240529104709 71 204 6.0 7.0 0.00 0.07 0.01 45 1013.3
20240529103705 71 185 5.0 7.0 0.00 0.07 0.01 50 1013.4
20240529102704 71 186 3.0 6.0 0.00 0.08 0.01 51 1013.5
20240529101704 71 203 5.0 9.0 0.00 0.09 0.01 50 1013.7
20240529100705 70 155 5.0 9.0 0.00 0.09 0.01 52 1013.8
20240529095705 69 216 5.0 6.0 0.00 0.09 0.01 55 1013.9